Weather History for Independence, KS

Change the Weather History Date:

Sunday, March 24, 2013

  Actual Average (KCFV) Record (KCFV)
Temperature  
Mean Temperature 30 °F -  
Max Temperature 33 °F 59 °F 79 °F (2003)
Min Temperature 28 °F 37 °F 26 °F (2014)
Degree Days  
Heating Degree Days 34    
Moisture  
Dew Point 27 °F    
Average Humidity 84    
Maximum Humidity 100    
Minimum Humidity 64    
Precipitation  
Precipitation 0.00 in - - ()
Sea Level Pressure  
Sea Level Pressure 29.97 in    
Wind  
Wind Speed 17 mph (NW)    
Max Wind Speed 28 mph    
Max Gust Speed 36 mph    
Visibility 6 miles    
Events Rain , Snow    
Averages and records for this station are not official NWS values.
T = Trace of Precipitation, MM = Missing Value Source: NWS Daily Summary

Daily Weather History Graph

Daily Weather History Graph

Search for Another Location

Airport:

Trip Planner

Search our weather history database for the weather conditions in past years. The results will help you decide how hot, cold, wet, or windy it might be!

Date:

Astronomy

Mar. 24, 2013 Rise Set
Actual Time 7:20 AM CDT 7:38 PM CDT
Civil Twilight 6:54 AM CDT 8:04 PM CDT
Nautical Twilight 6:23 AM CDT 8:35 PM CDT
Astronomical Twilight 5:52 AM CDT 9:06 PM CDT
Moon 5:10 PM CDT (3/24) 5:27 AM CDT (3/24)
Length of Visible Light 13h 10m
Length of Day
12h 18m
Waxing Gibbous, 92% of the Moon is Illuminated
Mar 24
Waxing Gibbous
Mar 27
Full
Apr 2
Last Quarter
Apr 10
New
Apr 18
First Quarter

Hourly Weather History & Observations

Time (CDT) Temp. Windchill Dew Point Humidity Pressure Visibility Wind Dir Wind Speed Gust Speed Precip Events Conditions
12:15 AM 33.8 °F 25.3 °F 32.0 °F 93% 29.83 in 4.0 mi North 11.5 mph - N/A Rain Rain
12:35 AM 33.8 °F 27.0 °F 32.0 °F 93% 29.81 in 3.0 mi North 8.1 mph - N/A Rain Light Rain
12:55 AM 32.0 °F 23.6 °F 32.0 °F 100% 29.78 in 2.5 mi NNE 10.4 mph - N/A   Overcast
1:15 AM 32.0 °F 24.2 °F 32.0 °F 100% 29.78 in 3.0 mi NNE 9.2 mph - N/A   Overcast
1:35 AM 32.0 °F 25.6 °F 32.0 °F 100% 29.77 in 4.0 mi North 6.9 mph - N/A   Overcast
1:55 AM 32.0 °F 23.6 °F 32.0 °F 100% 29.79 in 4.0 mi NW 10.4 mph - N/A Snow Light Snow
2:15 AM 32.0 °F 23.6 °F 32.0 °F 100% 29.80 in 2.0 mi NW 10.4 mph - N/A   Overcast
2:35 AM 32.0 °F 22.5 °F 32.0 °F 100% 29.80 in 1.0 mi NW 12.7 mph - N/A Snow Snow
2:55 AM 32.0 °F 21.6 °F 32.0 °F 100% 29.79 in 0.8 mi NW 15.0 mph - N/A Snow Snow
3:15 AM 32.0 °F 19.2 °F 32.0 °F 100% 29.79 in 1.0 mi NNW 23.0 mph 27.6 mph N/A Snow Snow
3:35 AM 32.0 °F 19.5 °F 30.2 °F 93% 29.78 in 1.8 mi NNW 21.9 mph 28.8 mph N/A Snow Light Snow
3:55 AM 32.0 °F 19.2 °F 30.2 °F 93% 29.78 in 2.5 mi NNW 23.0 mph 32.2 mph N/A Snow Light Snow
4:15 AM 32.0 °F 19.2 °F 30.2 °F 93% 29.78 in 0.8 mi NNW 23.0 mph 29.9 mph N/A Snow Snow
4:35 AM 32.0 °F 18.6 °F 30.2 °F 93% 29.78 in 1.0 mi NNW 25.3 mph 31.1 mph N/A Snow Light Snow
4:55 AM 32.0 °F 18.9 °F 30.2 °F 93% 29.78 in 1.8 mi NNW 24.2 mph 31.1 mph N/A Snow Light Snow
5:15 AM 30.2 °F 16.5 °F 30.2 °F 100% 29.78 in 1.5 mi NNW 24.2 mph 32.2 mph N/A Snow Light Snow
5:35 AM 30.2 °F 16.5 °F 30.2 °F 100% 29.79 in 1.0 mi NNW 24.2 mph 32.2 mph N/A Snow Light Snow
5:55 AM 30.2 °F 16.5 °F 28.4 °F 93% 29.81 in 1.2 mi NNW 24.2 mph 33.4 mph N/A Snow Light Snow
6:15 AM 30.2 °F 15.9 °F 28.4 °F 93% 29.81 in 1.5 mi NNW 26.5 mph 32.2 mph N/A Snow Light Snow
6:35 AM 30.2 °F 16.2 °F 28.4 °F 93% 29.82 in 1.8 mi NNW 25.3 mph 33.4 mph N/A Snow Light Snow
6:55 AM 30.2 °F 16.8 °F 28.4 °F 93% 29.84 in 1.2 mi NNW 23.0 mph 27.6 mph N/A Snow Light Snow
7:15 AM 30.2 °F 16.8 °F 28.4 °F 93% 29.85 in 1.0 mi NNW 23.0 mph 29.9 mph N/A Snow Snow
7:35 AM 30.2 °F 16.2 °F 28.4 °F 93% 29.86 in 1.2 mi NNW 25.3 mph 34.5 mph N/A Snow Light Snow
7:55 AM 30.2 °F 16.2 °F 28.4 °F 93% 29.87 in 1.0 mi NNW 25.3 mph 29.9 mph N/A Snow Light Snow
8:15 AM 30.2 °F 16.5 °F 28.4 °F 93% 29.89 in 1.0 mi NNW 24.2 mph 31.1 mph N/A Snow Light Snow
8:35 AM 30.2 °F 15.9 °F 28.4 °F 93% 29.90 in 1.2 mi NNW 26.5 mph 29.9 mph N/A Snow Light Snow
8:55 AM 30.2 °F 16.2 °F 28.4 °F 93% 29.91 in 1.0 mi NNW 25.3 mph 32.2 mph N/A Snow Light Snow
9:15 AM 30.2 °F 15.7 °F 28.4 °F 93% 29.92 in 1.2 mi NNW 27.6 mph 34.5 mph N/A   Overcast
9:35 AM 30.2 °F 16.2 °F 28.4 °F 93% 29.95 in 1.0 mi NNW 25.3 mph 35.7 mph N/A   Overcast
9:55 AM 30.2 °F 15.9 °F 28.4 °F 93% 29.95 in 1.2 mi NNW 26.5 mph 33.4 mph N/A Snow Light Snow
10:15 AM 32.0 °F 19.5 °F 28.4 °F 87% 29.97 in 3.0 mi NW 21.9 mph 28.8 mph N/A Snow Light Snow
10:35 AM 32.0 °F 19.8 °F 28.4 °F 87% 29.98 in 5.0 mi NNW 20.7 mph 29.9 mph N/A   Overcast
10:55 AM 32.0 °F 19.8 °F 28.4 °F 87% 29.99 in 5.0 mi NW 20.7 mph 32.2 mph N/A   Overcast
11:15 AM 32.0 °F 19.8 °F 26.6 °F 80% 30.00 in 5.0 mi NW 20.7 mph 31.1 mph N/A   Haze
11:35 AM 32.0 °F 18.6 °F 26.6 °F 80% 30.00 in 7.0 mi NNW 25.3 mph 32.2 mph N/A   Overcast
11:55 AM 32.0 °F 19.2 °F 26.6 °F 80% 30.01 in 7.0 mi NNW 23.0 mph 31.1 mph N/A   Overcast
12:15 PM 32.0 °F 19.2 °F 26.6 °F 80% 30.03 in 7.0 mi NW 23.0 mph 33.4 mph N/A   Overcast
12:35 PM 32.0 °F 20.1 °F 26.6 °F 80% 30.04 in 10.0 mi NW 19.6 mph 29.9 mph N/A   Overcast
12:55 PM 32.0 °F 18.6 °F 26.6 °F 80% 30.04 in 10.0 mi NW 25.3 mph 31.1 mph N/A   Overcast
1:15 PM 32.0 °F 19.5 °F 26.6 °F 80% 30.05 in 10.0 mi NNW 21.9 mph 29.9 mph N/A   Overcast
1:35 PM 32.0 °F 20.5 °F 26.6 °F 80% 30.06 in 10.0 mi NW 18.4 mph 27.6 mph N/A   Overcast
1:55 PM 32.0 °F 19.8 °F 26.6 °F 80% 30.06 in 10.0 mi NW 20.7 mph 29.9 mph N/A   Overcast
2:15 PM 32.0 °F 19.8 °F 26.6 °F 80% 30.06 in 10.0 mi NW 20.7 mph 25.3 mph N/A   Overcast
2:35 PM 32.0 °F 20.1 °F 24.8 °F 75% 30.06 in 10.0 mi NW 19.6 mph 25.3 mph N/A   Overcast
2:55 PM 32.0 °F 20.1 °F 24.8 °F 75% 30.06 in 10.0 mi NW 19.6 mph 28.8 mph N/A   Overcast
3:15 PM 32.0 °F 20.8 °F 26.6 °F 80% 30.07 in 10.0 mi NW 17.3 mph 32.2 mph N/A   Overcast
3:35 PM 32.0 °F 20.1 °F 26.6 °F 80% 30.07 in 10.0 mi NW 19.6 mph 24.2 mph N/A   Overcast
3:55 PM 32.0 °F 19.8 °F 24.8 °F 75% 30.07 in 10.0 mi NW 20.7 mph 27.6 mph N/A   Overcast
4:15 PM 32.0 °F 19.2 °F 23.0 °F 69% 30.06 in 10.0 mi NNW 23.0 mph 27.6 mph N/A   Mostly Cloudy
4:35 PM 32.0 °F 19.8 °F 23.0 °F 69% 30.06 in 10.0 mi NNW 20.7 mph 26.5 mph N/A   Scattered Clouds
4:55 PM 32.0 °F 19.5 °F 23.0 °F 69% 30.06 in 10.0 mi NW 21.9 mph 29.9 mph N/A   Clear
5:15 PM 32.0 °F 19.5 °F 23.0 °F 69% 30.06 in 10.0 mi NNW 21.9 mph 27.6 mph N/A   Clear
5:35 PM 32.0 °F 19.2 °F 23.0 °F 69% 30.07 in 10.0 mi NW 23.0 mph 28.8 mph N/A   Clear
5:55 PM 32.0 °F 19.2 °F 21.2 °F 64% 30.07 in 10.0 mi NNW 23.0 mph 31.1 mph N/A   Clear
6:15 PM 32.0 °F 19.8 °F 23.0 °F 69% 30.07 in 10.0 mi NW 20.7 mph 27.6 mph N/A   Clear
6:35 PM 32.0 °F 20.1 °F 23.0 °F 69% 30.08 in 10.0 mi NNW 19.6 mph 25.3 mph N/A   Clear
6:55 PM 32.0 °F 20.5 °F 21.2 °F 64% 30.10 in 10.0 mi NW 18.4 mph - N/A   Clear
7:15 PM 32.0 °F 22.1 °F 23.0 °F 69% 30.10 in 10.0 mi NW 13.8 mph 26.5 mph N/A   Clear
7:35 PM 32.0 °F 22.5 °F 23.0 °F 69% 30.11 in 10.0 mi NW 12.7 mph 17.3 mph N/A   Clear
7:55 PM 32.0 °F 24.2 °F 23.0 °F 69% 30.12 in 10.0 mi NW 9.2 mph 12.7 mph N/A   Clear
8:15 PM 30.2 °F 22.6 °F 23.0 °F 75% 30.12 in 10.0 mi WNW 8.1 mph - N/A   Clear
8:35 PM 30.2 °F 22.6 °F 23.0 °F 75% 30.13 in 10.0 mi West 8.1 mph - N/A   Clear
8:55 PM 30.2 °F 23.4 °F 23.0 °F 75% 30.13 in 10.0 mi West 6.9 mph - N/A   Clear
9:15 PM 30.2 °F 23.4 °F 23.0 °F 75% 30.14 in 10.0 mi WNW 6.9 mph - N/A   Clear
9:35 PM 30.2 °F 24.3 °F 23.0 °F 75% 30.14 in 10.0 mi WNW 5.8 mph - N/A   Clear
9:55 PM 28.4 °F 22.2 °F 23.0 °F 80% 30.15 in 10.0 mi West 5.8 mph - N/A   Clear
10:15 PM 28.4 °F 22.2 °F 23.0 °F 80% 30.15 in 10.0 mi West 5.8 mph - N/A   Clear
10:35 PM 28.4 °F 22.2 °F 21.2 °F 74% 30.16 in 10.0 mi West 5.8 mph - N/A   Clear
10:55 PM 28.4 °F 21.2 °F 21.2 °F 74% 30.15 in 10.0 mi West 6.9 mph - N/A   Clear
11:15 PM 28.4 °F 21.2 °F 21.2 °F 74% 30.16 in 10.0 mi West 6.9 mph - N/A   Clear
11:35 PM 28.4 °F 21.2 °F 21.2 °F 74% 30.16 in 10.0 mi WNW 6.9 mph - N/A   Clear
11:55 PM 28.4 °F 23.3 °F 21.2 °F 74% 30.16 in 10.0 mi West 4.6 mph - N/A   Scattered Clouds